STARLINK-1596, 46141

Orbit data source: Space-Track

STARLINK-1596, 46141 is a payload satellite owned by SpaceX/Seattle (US) in LEO that was launched on Tue, 18 Aug 2020 UTC via an FALCON 9 launch vehicle from the Air Force Eastern Test Range (AFETR). Payload-class satellites include a variety of spacecraft equipped with specific instruments for various scientific and technological missions. These include communications satellites like Starlink; space stations such as the ISS; scientific satellites like the Hubble; Earth observation satellites from companies like Planet Labs, Umbra, and HawkEye 360; GPS; miniature CubeSats for education and research; and military/defense satellites.

Loading next visibility...
Identifier
46141, 2020-057AA
Orbit
LEO
Country
Flag of USUS
Related business
Manufacturer
SpaceX/Seattle
Mission
Partially operational Commercial Communications
Bus & Motor
STARLINK, Unknown motor
Mass
260 kg wet, ~248 kg dry
Launch date (UTC)
2020-08-18 (5 years ago)
Launch vehicle
FALCON 9
Launch site
Air Force Eastern Test Range (AFETR)
Object type
Payload
Rocket body
Debris
Shape & HBR
Box + 1 Pan, 10.1 m
Radar Cross Section
13.562 m², Large (>1 m²)

Expand to show TLE details & history
Last TLE update: 13 hours ago

TLE from 13 hours ago
0 STARLINK-1596
1 46141U 20057AA  25310.74787343  .00038821  00000-0  14191-2 0  9994
2 46141  53.0487  88.8976 0007675 177.6252 182.4784 15.27711445288375
Epoch: 2025-11-06T17:56Z
TLE epoch observation values (Epoch: 2025-11-06T17:56:56.264Z)
Latitude
-0.00001°
Longitude
133.46141°
Altitude
488.803 km
Speed
7.619 km/s
True Right ascension
05h 55m 35s
True Declination
0° 00' 00"
Sunlit
Object was in full shadow at epoch
Visualization orbit readout
Latitude
Unknown
Longitude
Unknown
Altitude
Unknown
Speed
Unknown
Apparent Right ascension
Unknown
Apparent Declination
Unknown
Sunlit
N/A
Visualization observer readout
Local Sidereal Time
03:19:03
Azimuth
Unknown
Elevation
Unknown
Doppler factor
Unknown
Orbital elements
Apogee altitude
488.196 km
Perigee altitude
477.664 km
Semi-major axis
6,861.067 km
Eccentricity
0.00077
Inclination
53.0487°
RAAN
88.8976°
Arg. of periapsis
177.6252°
True anomaly
182.4746°
Mean anomaly
182.4784°
Eccentric anomaly
182.4765°
Mean motion
3.81905 °/min
Orbital period
94.26 mins
BSTAR
0.0014191
Loading maneuver chart data...
Computing Atmospheric mass density...
Loading historical data...
Loading historical data...
Loading historical data...
Loading historical data...
Loading historical data...
Loading historical data...
Loading historical data...

Documentation

Showing up to 5 results
|